Home   Weather   Kairouan   Past weeks

Flag for Tunisia Past Weather in Kairouan, Tunisia — Yesterday and Last 2 Weeks

Now
75 °F

Mild.


Feels Like: 77 °F
Forecast: 72 / 95 °F
Wind: No wind

Location: Kairouan Airport

Current Time: Sep 1, 2016 at 4:51:04 AM

Latest Report: Sep 1, 2016 at 4:00 AM


Visibility: N/A

Pressure: 30.07 "Hg

Humidity: 74%

Dew Point: 66 °F

Location of KairouanLocation

Past Weather in Kairouan — Graph

°F

Kairouan Temperature Yesterday

Maximum temperature yesterday: 102 °F (at 3:00 PM)
Minimum temperature yesterday: 77 °F (at 6:00 AM)
Average temperature yesterday: 86 °F

High & Low Weather Summary for the Past Weeks

 TemperatureHumidityPressure
High108 °F (Aug 20, 3:00 PM)83% (Aug 18, 3:00 AM)30.12 "Hg (Aug 18, 3:00 AM)
Low70 °F (Aug 26, 6:00 AM)18% (Aug 20, 3:00 PM)29.80 "Hg (Aug 17, 3:00 PM)
Average85 °F47%29.99 "Hg
* Reported Aug 17 3:00 AM — Sep 1 3:00 AM, Kairouan, Weather by CustomWeather, © 2016

Note: Actual official high and low records may vary slightly from our data, if they occured in-between our weather recording intervals... More about our weather records

Advertising

Kairouan Weather History for the Previous 24 Hours

Scroll right to see more
 ConditionsComfort  
Time TempWeatherWind HumidityBarometerVisibility
3:00 AM
Thu, Sep 1
77 °FPassing clouds.6 mph69%30.04 "Hg5 mi
2:00 AM77 °FPassing clouds.5 mph74%30.07 "Hg5 mi
1:00 AM77 °FPassing clouds.5 mph74%30.07 "HgN/A
12:00 AM79 °FPassing clouds.2 mph70%30.07 "HgN/A
11:00 PM
Wed, Aug 31
79 °FPassing clouds.No wind74%30.07 "HgN/A
10:00 PM79 °FPassing clouds.5 mph74%30.07 "HgN/A
9:00 PM79 °FThundershowers. Passing clouds.7 mph74%30.04 "HgN/A
8:00 PM81 °FThunderstorms. Passing clouds.7 mph70%30.01 "HgN/A
7:00 PM82 °FThunderstorms. Passing clouds.5 mph70%30.04 "HgN/A
6:00 PM86 °FPartly sunny.7 mph59%29.98 "HgN/A
5:00 PM90 °FScattered clouds.10 mph52%29.95 "HgN/A
4:00 PM100 °FScattered clouds.No wind33%29.95 "HgN/A
3:00 PM102 °FPassing clouds.No wind26%29.95 "HgN/A
2:00 PM100 °FScattered clouds.No wind27%29.98 "HgN/A
1:00 PM97 °FScattered clouds.No wind32%29.98 "HgN/A
12:00 PM95 °FPartly sunny.No wind30%30.01 "HgN/A
11:00 AM93 °FPartly sunny.No wind36%30.01 "HgN/A
10:00 AM90 °FPartly sunny.No wind46%30.04 "HgN/A
9:00 AM82 °FPartly sunny.No wind58%30.01 "HgN/A
8:00 AM81 °FPartly sunny.No wind62%30.01 "HgN/A
7:00 AM77 °FPartly sunny.No wind65%30.01 "HgN/A
6:00 AM77 °FWarm.No wind65%29.98 "HgN/A
5:00 AM79 °FWarm.No wind58%29.98 "HgN/A
4:00 AM79 °FWarm.No wind58%29.98 "HgN/A
Weather by CustomWeather, © 2016

See weather overviewHow to use our weather pages